BRO67 EGMC-EGTK

Flight info

Callsign BRO67
Flight time 0h 37m
Altitude 6000
Route EVNAS DCT LAM DCT BPK DCT SAXBI N27 ICTAM DCT CPT DCT KENET DCT BUGUP
Aircraft DA62/L-SDFGRY/C

Departure

Time 2026-05-03 21:24
Airport London Southend Airport (EGMC)

Arrival

Time 2026-05-03 22:01
Airport London Oxford Airport (EGTK)
Time Latitude Longitude Altitude Speed Heading
2026-05-03 21:09 51.56846 0.69671 41 ft 0 kts 317°
2026-05-03 21:20 51.56860 0.69658 41 ft 8 kts 335°
2026-05-03 21:20 51.56920 0.69567 41 ft 11 kts 282°
2026-05-03 21:21 51.56910 0.69444 41 ft 11 kts 260°
2026-05-03 21:21 51.56898 0.69341 41 ft 8 kts 261°
2026-05-03 21:21 51.56873 0.69237 41 ft 12 kts 233°
2026-05-03 21:21 51.56849 0.69187 41 ft 0 kts 226°
2026-05-03 21:22 51.56836 0.69153 41 ft 11 kts 247°
2026-05-03 21:22 51.56878 0.69061 41 ft 9 kts 325°
2026-05-03 21:22 51.56921 0.69061 41 ft 0 kts 52°
2026-05-03 21:23 51.56968 0.69167 41 ft 42 kts 55°
2026-05-03 21:23 51.57261 0.69816 94 ft 87 kts 54°
2026-05-03 21:23 51.57641 0.70603 369 ft 93 kts 49°
2026-05-03 21:24 51.58088 0.71377 712 ft 95 kts 46°
2026-05-03 21:24 51.58548 0.72179 1038 ft 99 kts 46°
2026-05-03 21:24 51.59129 0.72704 1369 ft 99 kts
2026-05-03 21:24 51.59816 0.72812 1728 ft 99 kts
2026-05-03 21:25 51.60492 0.72885 2077 ft 99 kts
2026-05-03 21:25 51.61098 0.72488 2416 ft 98 kts 313°
2026-05-03 21:25 51.61489 0.71601 2767 ft 98 kts 302°
2026-05-03 21:25 51.61835 0.70686 3021 ft 96 kts 301°
2026-05-03 21:26 51.62190 0.69738 3231 ft 98 kts 301°
2026-05-03 21:26 51.62542 0.68798 3444 ft 99 kts 301°
2026-05-03 21:26 51.62856 0.67814 3649 ft 100 kts 290°
2026-05-03 21:26 51.63071 0.66762 3867 ft 100 kts 287°
2026-05-03 21:27 51.63271 0.65679 4079 ft 101 kts 286°
2026-05-03 21:27 51.63465 0.64583 4288 ft 102 kts 285°
2026-05-03 21:27 51.63653 0.63483 4508 ft 102 kts 284°
2026-05-03 21:27 51.63836 0.62390 4715 ft 103 kts 284°
2026-05-03 21:28 51.64022 0.61270 4927 ft 103 kts 284°
2026-05-03 21:28 51.64209 0.60142 5148 ft 103 kts 283°
2026-05-03 21:28 51.64391 0.59032 5359 ft 104 kts 283°
2026-05-03 21:28 51.64577 0.57906 5573 ft 104 kts 283°
2026-05-03 21:29 51.64761 0.56784 5786 ft 104 kts 282°
2026-05-03 21:29 51.64947 0.55650 5961 ft 108 kts 282°
2026-05-03 21:29 51.65146 0.54416 6001 ft 122 kts 282°
2026-05-03 21:29 51.65376 0.53002 6005 ft 135 kts 283°
2026-05-03 21:30 51.65621 0.51500 6002 ft 143 kts 283°
2026-05-03 21:30 51.65883 0.49903 6007 ft 149 kts 283°
2026-05-03 21:30 51.66148 0.48282 5991 ft 152 kts 283°
2026-05-03 21:30 51.66422 0.46604 6006 ft 154 kts 283°
2026-05-03 21:31 51.66692 0.44933 6003 ft 156 kts 281°
2026-05-03 21:31 51.66682 0.43201 5998 ft 154 kts 264°
2026-05-03 21:31 51.66566 0.41466 5988 ft 154 kts 262°
2026-05-03 21:31 51.66440 0.39749 5995 ft 154 kts 262°
2026-05-03 21:32 51.66314 0.38045 5996 ft 154 kts 262°
2026-05-03 21:32 51.66186 0.36325 5977 ft 155 kts 262°
2026-05-03 21:32 51.66058 0.34594 6008 ft 154 kts 262°
2026-05-03 21:32 51.65928 0.32855 5989 ft 156 kts 262°
2026-05-03 21:33 51.65799 0.31132 6002 ft 155 kts 262°
2026-05-03 21:33 51.65671 0.29409 5996 ft 155 kts 262°
2026-05-03 21:33 51.65542 0.27678 5991 ft 155 kts 262°
2026-05-03 21:33 51.65413 0.25960 5982 ft 155 kts 262°
2026-05-03 21:34 51.65283 0.24225 5988 ft 154 kts 262°
2026-05-03 21:34 51.65155 0.22513 5990 ft 154 kts 262°
2026-05-03 21:34 51.65025 0.20798 5996 ft 154 kts 262°
2026-05-03 21:34 51.64894 0.19069 5995 ft 155 kts 262°
2026-05-03 21:35 51.64764 0.17356 5997 ft 155 kts 262°
2026-05-03 21:35 51.64671 0.15626 5986 ft 156 kts 275°
2026-05-03 21:35 51.65105 0.14037 6010 ft 158 kts 297°
2026-05-03 21:35 51.65682 0.12512 5992 ft 158 kts 300°
2026-05-03 21:36 51.66278 0.11015 5998 ft 158 kts 301°
2026-05-03 21:36 51.66875 0.09527 6007 ft 159 kts 300°
2026-05-03 21:36 51.67482 0.08017 6017 ft 160 kts 300°
2026-05-03 21:36 51.68084 0.06520 5994 ft 161 kts 301°
2026-05-03 21:37 51.68696 0.04996 5996 ft 160 kts 301°
2026-05-03 21:37 51.69300 0.03493 5993 ft 157 kts 301°
2026-05-03 21:37 51.69899 0.02001 5997 ft 158 kts 301°
2026-05-03 21:37 51.70490 0.00524 6008 ft 159 kts 301°
2026-05-03 21:38 51.71094 -0.00979 5988 ft 158 kts 301°
2026-05-03 21:38 51.71697 -0.02485 6001 ft 159 kts 301°
2026-05-03 21:38 51.72300 -0.03991 5984 ft 159 kts 301°
2026-05-03 21:38 51.72898 -0.05486 5995 ft 159 kts 301°
2026-05-03 21:39 51.73500 -0.06992 5980 ft 159 kts 301°
2026-05-03 21:39 51.74102 -0.08497 5993 ft 158 kts 301°
2026-05-03 21:39 51.74696 -0.09990 5984 ft 158 kts 299°
2026-05-03 21:39 51.74943 -0.11691 6000 ft 156 kts 272°
2026-05-03 21:40 51.75001 -0.13439 5988 ft 156 kts 270°
2026-05-03 21:40 51.75038 -0.15217 5984 ft 156 kts 270°
2026-05-03 21:40 51.75071 -0.16965 5993 ft 155 kts 270°
2026-05-03 21:40 51.75103 -0.18721 5988 ft 155 kts 270°
2026-05-03 21:41 51.75133 -0.20469 5988 ft 156 kts 270°
2026-05-03 21:41 51.75163 -0.22221 5983 ft 156 kts 270°
2026-05-03 21:41 51.75193 -0.23971 5984 ft 155 kts 270°
2026-05-03 21:41 51.75220 -0.25712 5991 ft 156 kts 270°
2026-05-03 21:42 51.75249 -0.27457 5991 ft 156 kts 270°
2026-05-03 21:42 51.75277 -0.29232 5990 ft 156 kts 270°
2026-05-03 21:42 51.75306 -0.30982 5991 ft 157 kts 270°
2026-05-03 21:42 51.75334 -0.32759 5992 ft 157 kts 270°
2026-05-03 21:43 51.75362 -0.34522 5991 ft 157 kts 270°
2026-05-03 21:43 51.75389 -0.36287 5992 ft 157 kts 270°
2026-05-03 21:43 51.75415 -0.38053 5991 ft 157 kts 270°
2026-05-03 21:43 51.75442 -0.39810 5993 ft 158 kts 270°
2026-05-03 21:44 51.75470 -0.41607 5990 ft 158 kts 270°
2026-05-03 21:44 51.75496 -0.43374 5992 ft 158 kts 270°
2026-05-03 21:44 51.75522 -0.45146 5990 ft 158 kts 270°
2026-05-03 21:44 51.75547 -0.46929 5988 ft 158 kts 270°
2026-05-03 21:45 51.75573 -0.48690 5990 ft 158 kts 270°
2026-05-03 21:45 51.75599 -0.50484 5992 ft 158 kts 270°
2026-05-03 21:45 51.75623 -0.52255 5994 ft 158 kts 270°
2026-05-03 21:45 51.75649 -0.54040 5997 ft 159 kts 270°
2026-05-03 21:46 51.75674 -0.55808 5994 ft 159 kts 270°
2026-05-03 21:46 51.75699 -0.57599 5987 ft 159 kts 270°
2026-05-03 21:46 51.75724 -0.59374 5988 ft 158 kts 270°
2026-05-03 21:46 51.75748 -0.61166 5985 ft 158 kts 270°
2026-05-03 21:47 51.75771 -0.62927 5993 ft 158 kts 270°
2026-05-03 21:47 51.75795 -0.64696 6009 ft 159 kts 270°
2026-05-03 21:47 51.75817 -0.66509 6002 ft 161 kts 269°
2026-05-03 21:47 51.75840 -0.68318 5992 ft 161 kts 269°
2026-05-03 21:48 51.75864 -0.70127 5989 ft 160 kts 269°
2026-05-03 21:48 51.75886 -0.71940 5989 ft 160 kts 269°
2026-05-03 21:48 51.75908 -0.73740 5986 ft 159 kts 269°
2026-05-03 21:48 51.75929 -0.75516 5984 ft 159 kts 269°
2026-05-03 21:49 51.75951 -0.77306 5989 ft 159 kts 269°
2026-05-03 21:49 51.75758 -0.79040 5989 ft 158 kts 236°
2026-05-03 21:49 51.75063 -0.80420 5990 ft 157 kts 227°
2026-05-03 21:49 51.74309 -0.81693 5984 ft 157 kts 225°
2026-05-03 21:50 51.73544 -0.82949 5985 ft 157 kts 224°
2026-05-03 21:50 51.72774 -0.84200 5981 ft 157 kts 224°
2026-05-03 21:50 51.71997 -0.85457 5984 ft 157 kts 224°
2026-05-03 21:50 51.71225 -0.86705 5984 ft 156 kts 224°
2026-05-03 21:51 51.70452 -0.87948 5980 ft 156 kts 224°
2026-05-03 21:51 51.69678 -0.89193 5986 ft 156 kts 224°
2026-05-03 21:51 51.69161 -0.90689 5980 ft 158 kts 263°
2026-05-03 21:51 51.69285 -0.92450 5986 ft 158 kts 279°
2026-05-03 21:52 51.69512 -0.94199 5981 ft 159 kts 281°
2026-05-03 21:52 51.69747 -0.95941 5991 ft 159 kts 281°
2026-05-03 21:52 51.69983 -0.97684 5988 ft 159 kts 281°
2026-05-03 21:52 51.70219 -0.99441 5987 ft 160 kts 281°
2026-05-03 21:53 51.70450 -1.01178 5986 ft 160 kts 281°
2026-05-03 21:53 51.70683 -1.02917 5972 ft 154 kts 281°
2026-05-03 21:53 51.70906 -1.04591 5698 ft 152 kts 281°
2026-05-03 21:53 51.71125 -1.06257 5440 ft 151 kts 281°
2026-05-03 21:54 51.71342 -1.07913 5189 ft 151 kts 281°
2026-05-03 21:54 51.71553 -1.09574 4934 ft 151 kts 282°
2026-05-03 21:54 51.71761 -1.11226 4679 ft 151 kts 281°
2026-05-03 21:54 51.71956 -1.12861 4427 ft 150 kts 281°
2026-05-03 21:55 51.72152 -1.14539 4171 ft 150 kts 281°
2026-05-03 21:55 51.72342 -1.16201 3915 ft 150 kts 281°
2026-05-03 21:55 51.72528 -1.17847 3659 ft 150 kts 281°
2026-05-03 21:55 51.72710 -1.19504 3403 ft 149 kts 281°
2026-05-03 21:56 51.72890 -1.21162 3151 ft 149 kts 281°
2026-05-03 21:56 51.73069 -1.22804 2908 ft 148 kts 281°
2026-05-03 21:56 51.73247 -1.24429 2666 ft 147 kts 281°
2026-05-03 21:56 51.73421 -1.26039 2421 ft 145 kts 281°
2026-05-03 21:57 51.73576 -1.27607 2249 ft 137 kts 279°
2026-05-03 21:57 51.73697 -1.29134 2085 ft 137 kts 278°
2026-05-03 21:57 51.73820 -1.30669 1937 ft 136 kts 281°
2026-05-03 21:57 51.73998 -1.32162 1830 ft 137 kts 281°
2026-05-03 21:58 51.74273 -1.33604 1776 ft 132 kts 304°
2026-05-03 21:58 51.75012 -1.34401 1662 ft 132 kts 351°
2026-05-03 21:58 51.75943 -1.34325 1490 ft 134 kts 11°
2026-05-03 21:58 51.76829 -1.34020 1384 ft 125 kts 10°
2026-05-03 21:59 51.77658 -1.33769 1304 ft 117 kts
2026-05-03 21:59 51.78404 -1.33563 1276 ft 100 kts
2026-05-03 21:59 51.79078 -1.33346 1125 ft 98 kts 11°
2026-05-03 21:59 51.79752 -1.33123 977 ft 94 kts
2026-05-03 22:00 51.80376 -1.32952 863 ft 91 kts
2026-05-03 22:00 51.81012 -1.32785 687 ft 92 kts
2026-05-03 22:00 51.81629 -1.32611 554 ft 90 kts
2026-05-03 22:00 51.82240 -1.32436 443 ft 86 kts
2026-05-03 22:01 51.82830 -1.32257 332 ft 87 kts
2026-05-03 22:01 51.83397 -1.32088 257 ft 70 kts
2026-05-03 22:01 51.83735 -1.31981 257 ft 25 kts
2026-05-03 22:01 51.83895 -1.31936 257 ft 21 kts 12°
2026-05-03 22:02 51.83959 -1.31917 257 ft 5 kts 13°
2026-05-03 22:02 51.83973 -1.31912 257 ft 5 kts 13°
2026-05-03 22:02 51.83973 -1.31844 257 ft 11 kts 110°
2026-05-03 22:02 51.83934 -1.31690 257 ft 11 kts 150°
2026-05-03 22:03 51.83862 -1.31700 257 ft 11 kts 192°
2026-05-03 22:03 51.83772 -1.31728 257 ft 11 kts 190°
2026-05-03 22:03 51.83701 -1.31750 257 ft 10 kts 191°
2026-05-03 22:03 51.83609 -1.31720 257 ft 13 kts 147°
2026-05-03 22:04 51.83537 -1.31646 257 ft 13 kts 148°
2026-05-03 22:04 51.83466 -1.31575 257 ft 10 kts 148°
2026-05-03 22:04 51.83409 -1.31558 257 ft 9 kts 225°
2026-05-03 22:04 51.83337 -1.31643 257 ft 14 kts 197°
2026-05-03 22:05 51.83250 -1.31639 257 ft 8 kts 159°
2026-05-03 22:05 51.83218 -1.31616 257 ft 3 kts 154°
2026-05-03 22:05 51.83175 -1.31583 257 ft 10 kts 154°
2026-05-03 22:05 51.83123 -1.31537 257 ft 6 kts 113°
2026-05-03 22:06 51.83139 -1.31469 257 ft 8 kts 66°
2026-05-03 22:06 51.83153 -1.31393 257 ft 5 kts 64°
2026-05-03 22:06 51.83173 -1.31383 257 ft 2 kts 282°
2026-05-03 22:06 51.83170 -1.31390 257 ft 0 kts 208°